Regional Weather Roundup
Issued by NWS

Home | Current Version | Previous Version | Graphics & Text | Print | Product List | Glossary On
Versions: 1 2 3 4 5 6 7 8 9 10 11 12 13 14 15 16 17 18 19 20 21 22 23 24 25 26 27 28 29 30 31 32 33 34 35 36 37 38 39 40 41 42 43 44 45 46 47 48 49 50
000
ASUS45 KCYS 200010
RWRWY

WYOMING REGIONAL WEATHER ROUNDUP
NATIONAL WEATHER SERVICE CHEYENNE WY
600 PM MDT SUN OCT 19 2014

NOTE:  "FAIR" INDICATES FEW OR NO CLOUDS BELOW 12,000 FEET
WITH NO SIGNIFICANT WEATHER AND/OR OBSTRUCTIONS TO VISIBILITY.

WYZ001-200100-
YELLOWSTONE NATIONAL PARK

CITY           SKY/WX    TMP DP  RH WIND       PRES   REMARKS
LK YELLOWSTONE   N/A     54  20  26 CALM      30.23R
6HR MIN TEMP:  45; 6HR MAX TEMP:  59;

W YELLOWSTONE  NOT AVBL

$$
WYZ002>013-054>058-071-098>099-200100-
NORTHERN WYOMING

CITY           SKY/WX    TMP DP  RH WIND       PRES   REMARKS
JACKSON        CLEAR     64  27  24 CALM      30.13S
CODY           CLEAR    N/A N/A N/A E8        30.03S
GREYBULL       CLEAR     70  30  22 S5        29.99S
6HR MIN TEMP:  59; 6HR MAX TEMP:  75;

WORLAND        CLEAR     69  33  26 E6        29.99F
6HR MIN TEMP:  62; 6HR MAX TEMP:  76;

SHERIDAN       CLEAR     68  34  28 CALM      30.02S
6HR MIN TEMP:  68; 6HR MAX TEMP:  76;

BUFFALO        CLEAR     66  31  27 E3        30.08R
6HR MIN TEMP:  65; 6HR MAX TEMP:  72;

GILLETTE       CLEAR     60  40  47 SE7       30.06R
6HR MIN TEMP:  60; 6HR MAX TEMP:  73;

HULETT         FAIR      64  36  34 CALM      30.08
NEWCASTLE      FAIR      66  32  28 CALM      30.07

$$
WYZ014>020-022>026-101>103-200100-
CENTRAL WYOMING

CITY           SKY/WX    TMP DP  RH WIND       PRES   REMARKS
BIG PINEY      CLEAR     62  18  18 S5        30.17F
6HR MIN TEMP:  57; 6HR MAX TEMP:  66;

PINEDALE       CLEAR     61  21  21 E5        30.19S
DUBOIS         FAIR      55  27  33 S3        30.15S
LANDER         CLEAR     67  32  27 CALM      30.07S
6HR MIN TEMP:  60; 6HR MAX TEMP:  69;

RIVERTON       CLEAR     64  31  28 NE7       30.08S
6HR MIN TEMP:  58; 6HR MAX TEMP:  68;

CASPER         CLEAR     63  31  30 S6        30.08S
6HR MIN TEMP:  63; 6HR MAX TEMP:  73;

DOUGLAS        CLEAR     65  31  28 SE7       30.09
6HR MIN TEMP:  61; 6HR MAX TEMP:  73;


$$
WYZ021-027>030-104>119-200100-
SOUTHERN WYOMING

CITY           SKY/WX    TMP DP  RH WIND       PRES   REMARKS
EVANSTON       CLEAR     65  27  23 N5        30.16S
6HR MIN TEMP:  57; 6HR MAX TEMP:  67;

KEMMERER       CLEAR     61  27  27 E3        30.18S
FORT BRIDGER   FAIR      64  28  25 E6        30.20S
ROCK SPRINGS   CLEAR     63  29  27 N3        30.15S
6HR MIN TEMP:  55; 6HR MAX TEMP:  66;

DIXON          FAIR      64  35  33 NW6       30.18S
RAWLINS        CLEAR     63  25  23 W7        30.17R
6HR MIN TEMP:  59; 6HR MAX TEMP:  68;

SARATOGA       FAIR      61  28  29 N5        30.19R
LARAMIE        CLEAR     60  27  28 N5        30.19S
6HR MIN TEMP:  59; 6HR MAX TEMP:  65;

CHEYENNE       CLEAR     64  33  31 E8        30.15R
6HR MIN TEMP:  64; 6HR MAX TEMP:  69;

TORRINGTON     CLEAR     67  37  33 CALM      30.06S
6HR MIN TEMP:  67; 6HR MAX TEMP:  74;

PINE BLUFFS    FAIR      63  32  31 E5        30.12R

$$



USA.gov is the U.S. government's official web portal to all federal, state and local government web resources and services.